Location: La Chapelle
(45.4833°N, 2.1833°E)
Time: 08:48:30
(UTC+00:00)

Daily predictions for brighter satellites

Satellite Brightness Start Highest point End
(mag) Time Altitude Azimuth Time Altitude Azimuth Time Altitude Azimuth
COSMOS 2406 3.3 16:34:16 10° SSW 16:40:01 90° SSW 16:45:47 10° NNE
Cosmos 468 Rocket 4.5 16:36:10 10° SSW 16:41:17 62° WNW 16:46:29 10° NNE
Meteor 1-31 Rocket 4.4 16:40:50 10° SSW 16:44:23 38° W 16:48:00 10° NNW
Cosmos 1428 Rocket 4.5 16:42:15 10° N 16:48:24 68° E 16:54:32 10° SSE
NOSS 2-2 (C) 4.5 16:44:54 10° NW 16:50:12 87° ENE 16:57:41 10° SE
CZ-4B R/B 4.1 16:49:12 10° ESE 16:53:30 25° ENE 16:57:47 10° N
Cosmos 1092 Rocket 4.1 16:47:09 10° N 16:53:32 84° E 16:59:51 10° S
Cosmos 1898 Rocket 4.5 16:48:40 10° NNW 16:53:45 53° WSW 16:58:46 10° S
CZ-2D R/B 4.1 16:52:21 10° SE 16:55:36 27° ENE 16:58:51 10° N
Meteor 2-21 4.4 16:51:02 10° N 16:57:07 70° E 17:03:08 10° SSE
ATLAS CENTAUR R/B 3.3 16:46:30 10° SW 16:57:13 69° NW 17:01:30 10° NE
USA 267 3.4 16:50:54 10° NE 16:57:24 66° SE 17:03:54 10° SW
Cosmos 1939 Rocket 2.9 16:54:07 10° SSE 16:58:10 64° ENE 17:02:11 10° N
USA 306 3.8 16:56:43 10° NW 17:00:32 31° NNE 17:03:51 13° ENE
Cosmos 1151 Rocket 3.5 16:56:41 10° SSE 17:00:44 41° E 17:04:51 10° NNE
Cosmos 1633 Rocket 3.5 16:58:03 10° N 17:02:09 38° ENE 17:06:15 10° SE
COSMO-SKYMED 1 4.0 16:59:19 10° NE 17:02:25 19° E 17:05:30 10° SE
Cosmos 1782 2.7 16:58:49 10° S 17:02:48 82° E 17:06:48 10° N
Cosmos 1666 3.0 17:00:24 10° N 17:03:56 40° ENE 17:07:26 10° SSE
Cosmos 2360 Rocket 3.6 17:01:45 10° N 17:05:29 17° NE 17:08:17 13° ENE
ISS -2.5 17:03:00 10° WNW 17:06:16 44° SW 17:09:30 10° SE
Cosmos 1900 4.5 17:02:38 10° SSW 17:07:22 55° ESE 17:11:53 11° NE
PAYLOAD B 4.5 17:02:55 10° SE 17:08:15 47° ENE 17:13:35 10° N
SeaSat 1 4.4 17:05:21 10° N 17:09:07 22° NW 17:12:53 10° W
SL-08 R/B 4.1 17:05:28 10° N 17:10:00 51° WNW 17:14:28 10° SW
NOAA 12 4.5 17:05:28 10° S 17:10:46 71° WSW 17:16:06 10° NNW
Cosmos 1818 3.6 17:06:12 10° NNW 17:11:38 57° NE 17:16:59 10° SE
CZ-2C R/B 3.6 17:12:29 10° SSW 17:15:21 17° S 17:18:12 10° SE
Cosmos 2279 Rocket 4.0 17:10:39 10° S 17:16:43 61° E 17:22:49 10° NNE
Cosmos 2142 Rocket 4.5 17:11:35 10° S 17:17:40 65° E 17:23:50 10° NNE
ATLAS 5 CENTAUR R/B 3.0 17:10:48 10° NW 17:17:44 32° NNE 17:19:39 19° ENE
Cosmos 841 Rocket 3.9 17:12:45 10° SSW 17:17:52 64° WNW 17:22:59 10° NNE
USA 307 3.7 17:17:17 10° NW 17:21:12 34° NNE 17:23:33 20° ENE
Cosmos 2266 Rocket 4.5 17:15:18 10° N 17:21:14 38° ENE 17:27:09 10° SE
CZ-4C R/B 3.1 17:15:22 10° NW 17:22:41 88° SW 17:31:14 10° SE
Lacrosse 5 rocket 1.2 17:20:47 10° NW 17:24:41 68° NE 17:28:49 10° ESE
Cosmos 2208 Rocket 4.1 17:21:54 10° S 17:27:15 68° ESE 17:32:42 10° NNE
ATLAS 2AS CENTAUR R/B 4.4 17:22:22 10° NW 17:27:31 19° N 17:31:18 13° NE
Cosmos 2322 Rocket 2.8 17:23:33 10° NNW 17:28:46 35° NE 17:33:56 10° ESE
Cosmos 1933 Rocket 4.4 17:25:28 10° NNE 17:29:13 27° ENE 17:32:55 10° SE
AQUARIUS 4.3 17:25:00 10° S 17:29:28 79° WSW 17:34:00 10° NNW
Cosmos 1328 Rocket 3.6 17:26:23 10° S 17:30:45 61° E 17:35:08 10° NNE
Cosmos 2150 Rocket 4.2 17:25:45 10° NNW 17:30:48 48° ENE 17:35:52 10° SE
USA 234 3.2 17:24:21 10° ESE 17:30:51 70° NNE 17:37:22 10° NW
Cosmos 1666 Rocket 3.6 17:27:19 10° N 17:31:47 86° W 17:36:09 10° S
Cosmos 1980 Rocket 3.0 17:26:33 10° NW 17:32:04 54° WSW 17:37:30 10° S
CORIOLIS 4.4 17:29:34 10° S 17:34:58 74° WSW 17:40:26 10° NNW
Cosmos 1470 Rocket 3.7 17:31:01 10° N 17:35:23 50° ENE 17:39:44 10° SSE
Cosmos 1544 3.6 17:32:06 10° N 17:35:27 35° ENE 17:38:48 10° SE
Cosmos 1867 4.4 17:31:32 10° S 17:36:16 31° ESE 17:38:27 23° ENE
Cosmos 1812 3.0 17:32:47 10° SSW 17:36:36 68° W 17:40:28 10° N
Cosmos 1125 Rocket 3.6 17:31:54 10° NNW 17:37:03 51° ENE 17:42:10 10° SE
X-37B 1.6 17:34:33 10° SW 17:37:07 29° SSE 17:37:49 25° SE
PSLV R/B 3.6 17:33:54 10° SSE 17:37:35 87° WSW 17:41:23 10° NNW
H-2A R/B 1.9 17:33:14 10° SSE 17:38:20 75° ENE 17:43:21 10° N
DEBRIS 4.4 17:36:19 10° S 17:38:23 19° ESE 17:38:35 19° ESE
Okean O Rocket 1.9 17:36:00 10° SE 17:40:11 43° ENE 17:44:25 10° N
Meteor 2-8 Rocket 4.4 17:34:33 10° S 17:40:39 70° E 17:46:48 10° NNE
Meteor 1-10 Rocket 4.3 17:35:14 10° S 17:40:48 54° E 17:46:18 10° NNE
Meteor 1-11 Rocket 3.9 17:37:02 10° N 17:42:29 47° ENE 17:48:02 10° SSE
USA 308 3.4 17:39:57 10° NW 17:44:01 42° NNE 17:45:21 32° ENE
SL-16 R/B 2.2 17:43:54 10° NNW 17:49:32 62° ENE 17:55:09 10° SE
ARGOS 3.1 17:44:56 10° SSE 17:50:14 59° ENE 17:55:33 10° N
SKYMED 2 3.6 17:47:47 19° NNE 17:50:47 58° E 17:55:03 10° S
Cosmos 2082 Rocket 3.2 17:45:47 10° SW 17:51:11 44° WNW 17:56:36 10° NNE
deb Chang Zheng 4 3.4 17:51:27 10° SSE 17:55:44 70° ENE 18:00:01 10° N
COSMOS 2455 4.1 17:54:10 10° WSW 17:59:41 36° NW 18:04:54 12° NNE
Feng Yun 1-1 Rocket 4.4 17:59:26 10° SE 18:05:09 53° ENE 18:10:48 10° N
USA 305 2.9 18:04:15 10° NW 18:08:27 60° NNE 18:08:52 57° ENE
Cosmos 2333 Rocket 3.4 18:04:24 10° N 18:08:04 25° NNE 18:08:04 25° NNE
Cosmos 1356 Rocket 3.3 18:05:51 10° N 18:10:05 78° E 18:14:21 10° SSE
CZ-2C R/B 2.5 18:06:50 11° NNE 18:11:57 88° WNW 18:17:07 10° SSW
Cosmos 2219 Rocket 3.7 18:12:27 10° N 18:15:05 20° NNE 18:15:05 20° NNE
Aureole 3 Rocket 3.5 18:12:39 10° S 18:17:07 65° E 18:23:27 10° NNE
Cosmos 44 Rocket 4.4 18:12:56 10° NW 18:17:34 43° WSW 18:22:02 10° S
Cosmos 1515 Rocket 3.6 18:13:27 10° SSW 18:17:54 79° W 18:20:27 25° N
Cosmos 1655 Rocket 4.1 18:11:38 10° N 18:18:03 82° W 18:24:23 10° S
Cosmos 921 Rocket 3.7 18:16:25 10° SW 18:20:30 49° WNW 18:22:47 24° N
Spot 2 4.4 18:23:28 45° SE 18:24:51 62° ENE 18:29:52 10° N
CZ-4B R/B 4.0 18:28:33 10° S 18:33:46 50° W 18:38:58 10° NNW
COSMO-SKYMED 1 3.6 18:36:23 22° N 18:38:48 44° WNW 18:42:55 10° SW
USA 267 3.8 18:37:47 34° NNE 18:40:18 50° NNW 18:46:33 10° W
USA 306 3.4 18:36:32 10° NW 18:39:52 54° WNW 18:39:52 54° WNW
Landsat 5 3.9 18:41:36 57° W 18:41:36 57° W 18:45:18 10° SSW
Meteor 1-27 Rocket 3.7 18:38:20 10° SSW 18:43:50 75° W 18:46:30 32° N
Cosmos 2360 Rocket 2.1 18:44:40 10° NNW 18:50:08 80° NNE 18:50:08 80° NNE
Cosmos 2237 4.4 18:48:07 10° NNW 18:53:49 70° WSW 18:55:53 40° S
CZ-2C R/B 3.6 18:51:10 10° SW 18:53:23 18° SSW 18:53:23 18° SSW
DMSP B5D2-2 4.4 19:00:33 57° SSW 19:00:33 57° SSW 19:04:40 10° SSW
USA 307 4.4 18:57:08 10° WNW 18:59:35 33° WNW 18:59:35 33° WNW
Lacrosse 5 rocket 3.8 19:00:34 10° W 19:03:27 19° SW 19:04:38 17° SSW
Cosmos 2322 Rocket 3.3 19:07:33 10° NW 19:12:52 41° WSW 19:17:09 15° S
USA 234 4.3 19:10:00 20° S 19:14:07 40° SW 19:20:13 10° WNW
Okean O Rocket 4.1 19:13:22 10° SW 19:16:43 21° W 19:20:05 10° NW
NOSS 3-4 (A) 4.3 19:11:11 10° NNW 19:16:19 48° N 19:16:19 48° N
NOSS 3-4 (C) 4.3 19:11:18 10° NNW 19:16:24 48° N 19:16:24 48° N
Cosmos 1867 4.4 19:14:24 10° WSW 19:19:09 46° WNW 19:19:09 46° WNW
ATLAS 2AS CENTAUR R/B 4.0 19:14:19 10° NNW 19:18:44 28° N 19:18:44 28° N
NOSS 3-3 (A) 4.4 19:21:09 10° SW 19:25:51 55° W 19:25:51 55° W
NOSS 3-3 (C) 4.4 19:21:14 10° SW 19:25:55 55° W 19:25:55 55° W
SL-16 R/B 4.4 19:28:57 10° NW 19:33:08 21° W 19:37:18 10° SSW
Cosmos 2333 Rocket 4.2 19:48:14 10° NNW 19:50:07 21° NW 19:50:07 21° NW
